MOLNIYA 2-13

Last updated on Sept. 17, 2018, 4:45 p.m. UTC

1 08015U 75063A   18255.20718139  .05960333  12270-1  38959-1 0  9994
2 08015  61.8419  37.2023 0537656 288.2862 149.0108 14.84113552316928

Satellite is not in orbit.